Weather History for Beaufort, SC

Change the Weather History Date:

Sunday, February 17, 2013

  Actual Average (KNBC) Record (KNBC)
Temperature  
Mean Temperature 41 °F -  
Max Temperature 50 °F 63 °F 60 °F (2014)
Min Temperature 32 °F 43 °F 37 °F (2014)
Degree Days  
Heating Degree Days 24    
Moisture  
Dew Point 15 °F    
Average Humidity 42    
Maximum Humidity 80    
Minimum Humidity 17    
Precipitation  
Precipitation 0.00 in - - ()
Sea Level Pressure  
Sea Level Pressure 30.22 in    
Wind  
Wind Speed 12 mph (WNW)    
Max Wind Speed 20 mph    
Max Gust Speed 28 mph    
Visibility 10 miles    
Events      
Averages and records for this station are not official NWS values.
T = Trace of Precipitation, MM = Missing Value Source: NWS Daily Summary

Daily Weather History Graph

Daily Weather History Graph

Search for Another Location

Airport:

Trip Planner

Search our weather history database for the weather conditions in past years. The results will help you decide how hot, cold, wet, or windy it might be!

Date:

Astronomy

Feb. 17, 2013 Rise Set
Actual Time 7:03 AM EST 6:10 PM EST
Civil Twilight 6:38 AM EST 6:35 PM EST
Nautical Twilight 6:09 AM EST 7:04 PM EST
Astronomical Twilight 5:40 AM EST 7:32 PM EST
Moon 11:21 AM EST (2/17) 12:38 AM EST (2/17)
Length of Visible Light 11h 57m
Length of Day
11h 07m
Waxing Crescent, 49% of the Moon is Illuminated
Feb 17
Waxing Crescent
Feb 17
First Quarter
Feb 25
Full
Mar 4
Last Quarter
Mar 11
New

Hourly Weather History & Observations

Time (EST) Temp. Windchill Dew Point Humidity Pressure Visibility Wind Dir Wind Speed Gust Speed Precip Events Conditions
12:15 AM 37.4 °F 29.3 °F 14.0 °F 38% 30.08 in 7.0 mi NW 12.7 mph 23.0 mph N/A   Clear
12:35 AM 37.4 °F 29.3 °F 15.8 °F 41% 30.09 in 7.0 mi West 12.7 mph 23.0 mph N/A   Clear
12:55 AM 37.4 °F 28.9 °F 15.8 °F 41% 30.10 in 7.0 mi WNW 13.8 mph 21.9 mph N/A   Clear
1:15 AM 37.4 °F 28.2 °F 14.0 °F 38% 30.11 in 7.0 mi WNW 16.1 mph 25.3 mph N/A   Clear
1:35 AM 35.6 °F 25.9 °F 14.0 °F 41% 30.11 in 7.0 mi WNW 16.1 mph 24.2 mph N/A   Clear
1:55 AM 35.6 °F 26.6 °F 15.8 °F 44% 30.11 in 10.0 mi WNW 13.8 mph 19.6 mph N/A   Clear
2:15 AM 35.6 °F 26.2 °F 14.0 °F 41% 30.11 in 7.0 mi WNW 15.0 mph 23.0 mph N/A   Clear
2:35 AM 35.6 °F 27.5 °F 14.0 °F 41% 30.11 in 10.0 mi WNW 11.5 mph 24.2 mph N/A   Clear
2:55 AM 35.6 °F 27.5 °F 15.8 °F 44% 30.11 in 7.0 mi WNW 11.5 mph 19.6 mph N/A   Clear
3:15 AM 35.6 °F 26.6 °F 15.8 °F 44% 30.12 in 10.0 mi WNW 13.8 mph 19.6 mph N/A   Clear
3:35 AM 33.8 °F 25.3 °F 17.6 °F 52% 30.12 in 10.0 mi West 11.5 mph 18.4 mph N/A   Clear
3:55 AM 33.8 °F 24.8 °F 17.6 °F 52% 30.12 in 10.0 mi WNW 12.7 mph 20.7 mph N/A   Clear
4:15 AM 33.8 °F 26.4 °F 17.6 °F 52% 30.13 in 10.0 mi WNW 9.2 mph 17.3 mph N/A   Clear
4:35 AM 33.8 °F 24.8 °F 17.6 °F 52% 30.13 in 10.0 mi WNW 12.7 mph 19.6 mph N/A   Clear
4:55 AM 33.8 °F 23.9 °F 17.6 °F 52% 30.14 in 10.0 mi WNW 15.0 mph 20.7 mph N/A   Clear
5:15 AM 33.8 °F 25.3 °F 17.6 °F 52% 30.16 in 7.0 mi WNW 11.5 mph 17.3 mph N/A   Clear
5:35 AM 32.0 °F 24.8 °F 17.6 °F 55% 30.16 in 10.0 mi WNW 8.1 mph 17.3 mph N/A   Clear
5:55 AM 32.0 °F 23.6 °F 17.6 °F 55% 30.17 in 10.0 mi WNW 10.4 mph - N/A   Clear
6:15 AM 32.0 °F 23.0 °F 17.6 °F 55% 30.18 in 10.0 mi WNW 11.5 mph 16.1 mph N/A   Clear
6:35 AM 32.0 °F 23.0 °F 17.6 °F 55% 30.19 in 10.0 mi WNW 11.5 mph - N/A   Clear
6:55 AM 32.0 °F 24.8 °F 17.6 °F 55% 30.21 in 10.0 mi WNW 8.1 mph 17.3 mph N/A   Clear
7:15 AM 32.0 °F 23.6 °F 17.6 °F 55% 30.21 in 7.0 mi West 10.4 mph - N/A   Clear
7:35 AM 32.0 °F 24.2 °F 17.6 °F 55% 30.23 in 10.0 mi West 9.2 mph - N/A   Clear
7:55 AM 32.0 °F 23.0 °F 17.6 °F 55% 30.23 in 10.0 mi WNW 11.5 mph 16.1 mph N/A   Clear
8:15 AM 33.8 °F 24.8 °F 15.8 °F 48% 30.24 in 10.0 mi WNW 12.7 mph - N/A   Clear
8:55 AM 35.6 °F 27.1 °F 14.0 °F 41% 30.25 in 10.0 mi WNW 12.7 mph 23.0 mph N/A   Clear
9:15 AM 35.6 °F 26.2 °F 14.0 °F 41% 30.26 in 10.0 mi WNW 15.0 mph 19.6 mph N/A   Clear
9:55 AM 37.4 °F 29.8 °F 12.2 °F 36% 30.26 in 10.0 mi NW 11.5 mph 19.6 mph N/A   Clear
10:15 AM 39.2 °F 30.8 °F 12.2 °F 33% 30.26 in 10.0 mi NW 15.0 mph 19.6 mph N/A   Clear
10:35 AM 41.0 °F 32.5 °F 10.4 °F 29% 30.26 in 10.0 mi NW 17.3 mph 24.2 mph N/A   Clear
10:55 AM 41.0 °F 34.3 °F 10.4 °F 29% 30.26 in 10.0 mi WNW 11.5 mph - N/A   Clear
11:15 AM 42.8 °F 35.8 °F 10.4 °F 27% 30.26 in 10.0 mi WNW 13.8 mph 20.7 mph N/A   Clear
11:35 AM 42.8 °F 35.8 °F 10.4 °F 27% 30.26 in 10.0 mi NW 13.8 mph 21.9 mph N/A   Clear
11:55 AM 42.8 °F 35.1 °F 8.6 °F 25% 30.25 in 10.0 mi WNW 16.1 mph 21.9 mph N/A   Clear
12:15 PM 44.6 °F 37.8 °F 10.4 °F 25% 30.25 in 10.0 mi WNW 15.0 mph 21.9 mph N/A   Clear
12:35 PM 44.6 °F 37.2 °F 8.6 °F 23% 30.25 in 10.0 mi West 17.3 mph 25.3 mph N/A   Clear
12:55 PM 46.4 °F 40.4 °F 10.4 °F 23% 30.24 in 10.0 mi WNW 13.8 mph 20.7 mph N/A   Clear
1:15 PM 46.4 °F 39.8 °F 10.4 °F 23% 30.23 in 10.0 mi WNW 16.1 mph 21.9 mph N/A   Clear
1:35 PM 46.4 °F 39.0 °F 8.6 °F 22% 30.23 in 10.0 mi West 19.6 mph 27.6 mph N/A   Clear
1:55 PM 46.4 °F 40.1 °F 5.0 °F 18% 30.22 in 10.0 mi WNW 15.0 mph 26.5 mph N/A   Clear
2:15 PM 48.2 °F - 8.6 °F 20% 30.22 in 10.0 mi WNW 15.0 mph 24.2 mph N/A   Clear
2:35 PM 48.2 °F - 6.8 °F 19% 30.22 in 10.0 mi WNW 15.0 mph 23.0 mph N/A   Clear
2:55 PM 50.0 °F - 8.6 °F 19% 30.21 in 10.0 mi WNW 17.3 mph 25.3 mph N/A   Clear
3:15 PM 48.2 °F - 5.0 °F 17% 30.21 in 10.0 mi WNW 13.8 mph 20.7 mph N/A   Clear
3:35 PM 50.0 °F - 8.6 °F 19% 30.21 in 10.0 mi WNW 18.4 mph 23.0 mph N/A   Clear
3:55 PM 50.0 °F - 6.8 °F 17% 30.21 in 10.0 mi NW 16.1 mph 23.0 mph N/A   Clear
4:15 PM 50.0 °F - 8.6 °F 19% 30.22 in 10.0 mi WNW 13.8 mph 20.7 mph N/A   Clear
4:35 PM 48.2 °F - 8.6 °F 20% 30.22 in 10.0 mi WNW 11.5 mph - N/A   Clear
4:55 PM 48.2 °F - 10.4 °F 22% 30.22 in 10.0 mi WNW 9.2 mph - N/A   Clear
5:15 PM 46.4 °F 41.9 °F 8.6 °F 22% 30.23 in 10.0 mi West 9.2 mph - N/A   Clear
5:35 PM 46.4 °F 41.5 °F 10.4 °F 23% 30.23 in 10.0 mi West 10.4 mph - N/A   Clear
5:55 PM 44.6 °F 38.1 °F 12.2 °F 27% 30.24 in 10.0 mi West 13.8 mph 17.3 mph N/A   Clear
6:15 PM 44.6 °F 40.2 °F 12.2 °F 27% 30.25 in 10.0 mi West 8.1 mph - N/A   Clear
6:35 PM 42.8 °F 41.1 °F 14.0 °F 31% 30.26 in 10.0 mi West 3.5 mph - N/A   Clear
6:55 PM 37.4 °F 33.8 °F 17.6 °F 45% 30.26 in 10.0 mi WSW 4.6 mph - N/A   Clear
7:15 PM 41.0 °F 37.1 °F 14.0 °F 33% 30.27 in 10.0 mi West 5.8 mph - N/A   Clear
7:35 PM 37.4 °F 32.8 °F 19.4 °F 48% 30.28 in 10.0 mi WSW 5.8 mph - N/A   Clear
7:55 PM 37.4 °F 33.8 °F 19.4 °F 48% 30.29 in 10.0 mi WSW 4.6 mph - N/A   Clear
8:15 PM 37.4 °F 34.9 °F 21.2 °F 52% 30.30 in 10.0 mi SW 3.5 mph - N/A   Clear
8:35 PM 37.4 °F 33.8 °F 21.2 °F 52% 30.30 in 10.0 mi WSW 4.6 mph - N/A   Clear
8:55 PM 35.6 °F 32.8 °F 23.0 °F 60% 30.31 in 10.0 mi SW 3.5 mph - N/A   Clear
9:15 PM 35.6 °F - 23.0 °F 60% 30.31 in 10.0 mi Calm Calm - N/A   Clear
9:35 PM 35.6 °F - 23.0 °F 60% 30.32 in 10.0 mi Calm Calm - N/A   Clear
9:55 PM 33.8 °F 30.8 °F 24.8 °F 70% 30.32 in 10.0 mi SW 3.5 mph - N/A   Clear
10:15 PM 33.8 °F 30.8 °F 26.6 °F 75% 30.33 in 7.0 mi SW 3.5 mph - N/A   Clear
10:35 PM 33.8 °F 30.8 °F 26.6 °F 75% 30.34 in 7.0 mi SW 3.5 mph - N/A   Clear
10:55 PM 32.0 °F - 26.6 °F 80% 30.34 in 10.0 mi Calm Calm - N/A   Clear
11:15 PM 32.0 °F - 26.6 °F 80% 30.33 in 10.0 mi Calm Calm - N/A   Clear
11:35 PM 32.0 °F - 26.6 °F 80% 30.34 in 7.0 mi Calm Calm - N/A   Clear
11:55 PM 32.0 °F 28.7 °F 26.6 °F 80% 30.34 in 10.0 mi SSW 3.5 mph - N/A   Clear